Year,Month,Day,Hour,Minute,Value (Times are PST for temperature in C)
2018,11,25,00,00,4.90
2018,11,25,00,01,4.90
2018,11,25,00,02,4.90
2018,11,25,00,03,4.90
2018,11,25,00,04,4.90
2018,11,25,00,05,4.90
2018,11,25,00,06,4.90
2018,11,25,00,07,4.90
2018,11,25,00,08,4.90
2018,11,25,00,09,4.90
2018,11,25,00,10,5.00
2018,11,25,00,11,5.00
2018,11,25,00,12,5.00
2018,11,25,00,13,5.00
2018,11,25,00,14,5.00
2018,11,25,00,15,5.00
2018,11,25,00,16,5.00
2018,11,25,00,17,5.00
2018,11,25,00,18,5.00
2018,11,25,00,19,5.00
2018,11,25,00,20,5.00
2018,11,25,00,21,5.00
2018,11,25,00,22,5.00
2018,11,25,00,23,5.00
2018,11,25,00,24,5.00
2018,11,25,00,25,5.00
2018,11,25,00,26,5.00
2018,11,25,00,27,5.00
2018,11,25,00,28,5.00
2018,11,25,00,29,5.00
2018,11,25,00,30,5.00
2018,11,25,00,31,5.00
2018,11,25,00,32,5.00
2018,11,25,00,33,5.00
2018,11,25,00,34,5.00
2018,11,25,00,35,5.00
2018,11,25,00,36,5.00
2018,11,25,00,37,5.00
2018,11,25,00,38,5.00
2018,11,25,00,39,5.00
2018,11,25,00,40,5.00
2018,11,25,00,41,5.00
2018,11,25,00,42,5.00
2018,11,25,00,43,5.00
2018,11,25,00,44,5.00
2018,11,25,00,45,5.00
2018,11,25,00,46,5.00
2018,11,25,00,47,5.00
2018,11,25,00,48,5.00
2018,11,25,00,49,5.00
2018,11,25,00,50,5.00
2018,11,25,00,51,5.00
2018,11,25,00,52,5.00
2018,11,25,00,53,5.00
2018,11,25,00,54,5.10
2018,11,25,00,55,5.10
2018,11,25,00,56,5.10
2018,11,25,00,57,5.00
2018,11,25,00,58,5.10
2018,11,25,00,59,5.10
2018,11,25,01,00,5.10
2018,11,25,01,01,5.10
2018,11,25,01,02,5.10
2018,11,25,01,03,5.10
2018,11,25,01,04,5.10
2018,11,25,01,05,5.10
2018,11,25,01,06,5.10
2018,11,25,01,07,5.10
2018,11,25,01,08,5.10
2018,11,25,01,09,5.10
2018,11,25,01,10,5.10
2018,11,25,01,11,5.10
2018,11,25,01,12,5.10
2018,11,25,01,13,5.10
2018,11,25,01,14,5.10
2018,11,25,01,15,5.10
2018,11,25,01,16,5.10
2018,11,25,01,17,5.10
2018,11,25,01,18,5.10
2018,11,25,01,19,5.10
2018,11,25,01,20,5.10
2018,11,25,01,21,5.10
2018,11,25,01,22,5.10
2018,11,25,01,23,5.10
2018,11,25,01,24,5.10
2018,11,25,01,25,5.10
2018,11,25,01,26,5.10
2018,11,25,01,27,5.10
2018,11,25,01,28,5.10
2018,11,25,01,29,5.10
2018,11,25,01,30,5.10
2018,11,25,01,31,5.10
2018,11,25,01,32,5.10
2018,11,25,01,33,5.10
2018,11,25,01,34,5.10
2018,11,25,01,35,5.10
2018,11,25,01,36,5.10
2018,11,25,01,37,5.10
2018,11,25,01,38,5.10
2018,11,25,01,39,5.10
2018,11,25,01,40,5.10
2018,11,25,01,41,5.10
2018,11,25,01,42,5.10
2018,11,25,01,43,5.10
2018,11,25,01,44,5.10
2018,11,25,01,45,5.10
2018,11,25,01,46,5.10
2018,11,25,01,47,5.10
2018,11,25,01,48,5.10
2018,11,25,01,49,5.10
2018,11,25,01,50,5.20
2018,11,25,01,51,5.10
2018,11,25,01,52,5.20
2018,11,25,01,53,5.20
2018,11,25,01,54,5.20
2018,11,25,01,55,5.20
2018,11,25,01,56,5.20
2018,11,25,01,57,5.20
2018,11,25,01,58,5.20
2018,11,25,01,59,5.20
2018,11,25,02,00,5.20
2018,11,25,02,01,5.20
2018,11,25,02,02,5.20
2018,11,25,02,03,5.20
2018,11,25,02,04,5.20
2018,11,25,02,05,5.20
2018,11,25,02,06,5.20
2018,11,25,02,07,5.20
2018,11,25,02,08,5.20
2018,11,25,02,09,5.20
2018,11,25,02,10,5.20
2018,11,25,02,11,5.20
2018,11,25,02,12,5.20
2018,11,25,02,13,5.20
2018,11,25,02,14,5.20
2018,11,25,02,15,5.20
2018,11,25,02,16,5.20
2018,11,25,02,17,5.20
2018,11,25,02,18,5.20
2018,11,25,02,19,5.20
2018,11,25,02,20,5.20
2018,11,25,02,21,5.20
2018,11,25,02,22,5.20
2018,11,25,02,23,5.20
2018,11,25,02,24,5.20
2018,11,25,02,25,5.20
2018,11,25,02,26,5.20
2018,11,25,02,27,5.20
2018,11,25,02,28,5.20
2018,11,25,02,29,5.20
2018,11,25,02,30,5.20
2018,11,25,02,31,5.20
2018,11,25,02,32,5.20
2018,11,25,02,33,5.20
2018,11,25,02,34,5.20
2018,11,25,02,35,5.20
2018,11,25,02,36,5.20
2018,11,25,02,37,5.20
2018,11,25,02,38,5.20
2018,11,25,02,39,5.20
2018,11,25,02,40,5.20
2018,11,25,02,41,5.20
2018,11,25,02,42,5.20
2018,11,25,02,43,5.20
2018,11,25,02,44,5.20
2018,11,25,02,45,5.20
2018,11,25,02,46,5.20
2018,11,25,02,47,5.20
2018,11,25,02,48,5.20
2018,11,25,02,49,5.20
2018,11,25,02,50,5.20
2018,11,25,02,51,5.20
2018,11,25,02,52,5.20
2018,11,25,02,53,5.20
2018,11,25,02,54,5.20
2018,11,25,02,55,5.20
2018,11,25,02,56,5.20
2018,11,25,02,57,5.20
2018,11,25,02,58,5.20
2018,11,25,02,59,5.20
2018,11,25,03,00,5.20
2018,11,25,03,01,5.20
2018,11,25,03,02,5.20
2018,11,25,03,03,5.20
2018,11,25,03,04,5.20
2018,11,25,03,05,5.20
2018,11,25,03,06,5.20
2018,11,25,03,07,5.20
2018,11,25,03,08,5.20
2018,11,25,03,09,5.20
2018,11,25,03,10,5.20
2018,11,25,03,11,5.20
2018,11,25,03,12,5.20
2018,11,25,03,13,5.20
2018,11,25,03,14,5.20
2018,11,25,03,15,5.20
2018,11,25,03,16,5.20
2018,11,25,03,17,5.30
2018,11,25,03,18,5.30
2018,11,25,03,19,5.30
2018,11,25,03,20,5.30
2018,11,25,03,21,5.30
2018,11,25,03,22,5.30
2018,11,25,03,23,5.30
2018,11,25,03,24,5.30
2018,11,25,03,25,5.30
2018,11,25,03,26,5.30
2018,11,25,03,27,5.30
2018,11,25,03,28,5.30
2018,11,25,03,29,5.30
2018,11,25,03,30,5.30
2018,11,25,03,31,5.30
2018,11,25,03,32,5.30
2018,11,25,03,33,5.30
2018,11,25,03,34,5.30
2018,11,25,03,35,5.30
2018,11,25,03,36,5.30
2018,11,25,03,37,5.30
2018,11,25,03,38,5.30
2018,11,25,03,39,5.30
2018,11,25,03,40,5.30
2018,11,25,03,41,5.30
2018,11,25,03,42,5.30
2018,11,25,03,43,5.30
2018,11,25,03,44,5.30
2018,11,25,03,45,5.30
2018,11,25,03,46,5.30
2018,11,25,03,47,5.30
2018,11,25,03,48,5.30
2018,11,25,03,49,5.30
2018,11,25,03,50,5.30
2018,11,25,03,51,5.30
2018,11,25,03,52,5.30
2018,11,25,03,53,5.30
2018,11,25,03,54,5.30
2018,11,25,03,55,5.30
2018,11,25,03,56,5.30
2018,11,25,03,57,5.30
2018,11,25,03,58,5.30
2018,11,25,03,59,5.30
2018,11,25,04,00,5.30
2018,11,25,04,01,5.30
2018,11,25,04,02,5.30
2018,11,25,04,03,5.30
2018,11,25,04,04,5.30
2018,11,25,04,05,5.30
2018,11,25,04,06,5.30
2018,11,25,04,07,5.30
2018,11,25,04,08,5.30
2018,11,25,04,09,5.30
2018,11,25,04,10,5.30
2018,11,25,04,11,5.30
2018,11,25,04,12,5.30
2018,11,25,04,13,5.30
2018,11,25,04,14,5.30
2018,11,25,04,15,5.30
2018,11,25,04,16,5.30
2018,11,25,04,17,5.30
2018,11,25,04,18,5.30
2018,11,25,04,19,5.30
2018,11,25,10,32,6.10
2018,11,25,10,33,6.10
2018,11,25,10,34,6.10
2018,11,25,10,35,6.20
2018,11,25,10,36,6.20
2018,11,25,10,37,6.20
2018,11,25,10,38,6.20
2018,11,25,10,39,6.20
2018,11,25,10,40,6.20
2018,11,25,10,41,6.20
2018,11,25,10,42,6.20
2018,11,25,10,43,6.20
2018,11,25,10,44,6.20
2018,11,25,10,45,6.20
2018,11,25,10,46,6.20
2018,11,25,10,47,6.20
2018,11,25,10,48,6.20
2018,11,25,10,49,6.20
2018,11,25,10,50,6.20
2018,11,25,10,51,6.20
2018,11,25,10,52,6.20
2018,11,25,10,53,6.20
2018,11,25,10,54,6.20
2018,11,25,10,55,6.20
2018,11,25,10,56,6.30
2018,11,25,10,57,6.30
2018,11,25,10,58,6.30
2018,11,25,10,59,6.30
2018,11,25,11,00,6.30
2018,11,25,11,01,6.30
2018,11,25,11,02,6.30
2018,11,25,11,03,6.30
2018,11,25,11,04,6.30
2018,11,25,11,05,6.30
2018,11,25,11,06,6.30
2018,11,25,11,07,6.30
2018,11,25,11,08,6.30
2018,11,25,11,09,6.30
2018,11,25,11,10,6.30
2018,11,25,11,11,6.30
2018,11,25,11,12,6.30
2018,11,25,11,13,6.30
2018,11,25,11,14,6.20
2018,11,25,11,15,6.20
2018,11,25,11,16,6.20
2018,11,25,11,17,6.20
2018,11,25,11,18,6.20
2018,11,25,11,19,6.20
2018,11,25,11,20,6.10
2018,11,25,11,21,6.10
2018,11,25,11,22,6.10
2018,11,25,11,23,6.10
2018,11,25,11,24,6.10
2018,11,25,11,25,6.10
2018,11,25,11,26,6.10
2018,11,25,11,27,6.10
2018,11,25,11,28,6.10
2018,11,25,11,29,6.10
2018,11,25,11,30,6.10
2018,11,25,11,31,6.10
2018,11,25,11,32,6.10
2018,11,25,11,33,6.10
2018,11,25,11,34,6.10
2018,11,25,11,35,6.10
2018,11,25,11,36,6.10
2018,11,25,11,37,6.10
2018,11,25,11,38,6.10
2018,11,25,11,39,6.10
2018,11,25,11,40,6.10
2018,11,25,11,41,6.10
2018,11,25,11,42,6.10
2018,11,25,11,43,6.10
2018,11,25,11,44,6.10
2018,11,25,11,45,6.10
2018,11,25,11,46,6.10
2018,11,25,11,47,6.10
2018,11,25,11,48,6.10
2018,11,25,11,49,6.10
2018,11,25,11,50,6.00
2018,11,25,11,51,6.00
2018,11,25,11,52,6.00
2018,11,25,11,53,6.00
2018,11,25,11,54,6.00
2018,11,25,11,55,6.00
2018,11,25,11,56,6.00
2018,11,25,11,57,6.00
2018,11,25,11,58,6.00
2018,11,25,11,59,5.90
2018,11,25,12,00,5.90
2018,11,25,12,01,5.90
2018,11,25,12,02,5.90
2018,11,25,12,03,5.90
2018,11,25,12,04,5.90
2018,11,25,12,05,5.90
2018,11,25,12,06,5.80
2018,11,25,12,07,5.80
2018,11,25,12,08,5.90
2018,11,25,12,09,5.90
2018,11,25,12,10,5.90
2018,11,25,12,11,5.90
2018,11,25,12,12,5.90
2018,11,25,12,13,5.90
2018,11,25,12,14,5.90
2018,11,25,12,15,5.90
2018,11,25,12,16,5.90
2018,11,25,12,17,5.90
2018,11,25,12,18,5.90
2018,11,25,12,19,5.90
2018,11,25,12,20,5.90
2018,11,25,12,21,5.90
2018,11,25,12,22,5.90
2018,11,25,12,23,5.90
2018,11,25,12,24,5.90
2018,11,25,12,25,5.90
2018,11,25,12,26,5.90
2018,11,25,12,27,5.90
2018,11,25,12,28,5.90
2018,11,25,12,29,5.90
2018,11,25,12,30,5.90
2018,11,25,12,31,5.90
2018,11,25,12,32,5.90
2018,11,25,12,33,5.90
2018,11,25,12,34,5.90
2018,11,25,12,35,5.90
2018,11,25,12,36,5.90
2018,11,25,12,37,5.90
2018,11,25,12,38,5.90
2018,11,25,12,39,5.90
2018,11,25,12,40,5.90
2018,11,25,12,41,5.90
2018,11,25,12,42,5.90
2018,11,25,12,43,5.90
2018,11,25,12,44,5.90
2018,11,25,12,45,5.90
2018,11,25,12,46,5.90
2018,11,25,12,47,5.90
2018,11,25,12,48,5.90
2018,11,25,12,49,5.90
2018,11,25,12,50,5.90
2018,11,25,12,51,5.90
2018,11,25,12,52,5.90
2018,11,25,12,53,5.90
2018,11,25,12,54,5.90
2018,11,25,12,55,5.90
2018,11,25,12,56,5.90
2018,11,25,12,57,5.90
2018,11,25,12,58,5.90
2018,11,25,12,59,5.90
2018,11,25,13,00,5.90
2018,11,25,13,01,5.90
2018,11,25,13,02,5.90
2018,11,25,13,03,5.90
2018,11,25,13,04,5.80
2018,11,25,13,05,5.80
2018,11,25,13,06,5.80
2018,11,25,13,07,5.80
2018,11,25,13,08,5.80
2018,11,25,13,09,5.80
2018,11,25,13,10,5.80
2018,11,25,13,11,5.80
2018,11,25,13,12,5.80
2018,11,25,13,13,5.80
2018,11,25,13,14,5.80
2018,11,25,13,15,5.80
2018,11,25,13,16,5.80
2018,11,25,13,17,5.80
2018,11,25,13,18,5.80
2018,11,25,13,19,5.80
2018,11,25,13,20,5.80
2018,11,25,13,21,5.80
2018,11,25,13,22,5.80
2018,11,25,13,23,5.80
2018,11,25,13,24,5.80
2018,11,25,13,25,5.80
2018,11,25,13,26,5.80
2018,11,25,13,27,5.80
2018,11,25,13,28,5.80
2018,11,25,13,29,5.80
2018,11,25,13,30,5.80
2018,11,25,13,31,5.80
2018,11,25,13,32,5.70
2018,11,25,13,33,5.70
2018,11,25,13,34,5.70
2018,11,25,13,35,5.70
2018,11,25,13,36,5.70
2018,11,25,13,37,5.70
2018,11,25,13,38,5.70
2018,11,25,13,39,5.70
2018,11,25,13,40,5.70
2018,11,25,13,41,5.70
2018,11,25,13,42,5.70
2018,11,25,13,43,5.70
2018,11,25,13,44,5.70
2018,11,25,13,45,5.70
2018,11,25,14,35,5.50
2018,11,25,14,36,5.50
2018,11,25,14,37,5.50
2018,11,25,14,38,5.50
2018,11,25,14,39,5.40
2018,11,25,14,40,5.40
2018,11,25,14,41,5.40
2018,11,25,14,42,5.40
2018,11,25,14,43,5.40
2018,11,25,14,44,5.40
2018,11,25,14,45,5.40
2018,11,25,14,46,5.40
2018,11,25,14,47,5.40
2018,11,25,14,48,5.40
2018,11,25,14,49,5.40
2018,11,25,14,50,5.40
2018,11,25,14,51,5.40
2018,11,25,14,52,5.40
2018,11,25,14,53,5.40
2018,11,25,14,54,5.40
2018,11,25,14,55,5.40
2018,11,25,14,56,5.40
2018,11,25,14,57,5.40
2018,11,25,14,58,5.40
2018,11,25,14,59,5.40
2018,11,25,15,00,5.40
2018,11,25,15,01,5.40
2018,11,25,15,02,5.40
2018,11,25,15,03,5.40
2018,11,25,15,04,5.40
2018,11,25,15,05,5.30
2018,11,25,15,06,5.30
2018,11,25,15,07,5.30
2018,11,25,15,08,5.30
2018,11,25,15,09,5.40
2018,11,25,15,10,5.30
2018,11,25,15,11,5.30
2018,11,25,15,12,5.30
2018,11,25,15,13,5.30
2018,11,25,15,14,5.30
2018,11,25,15,15,5.30
2018,11,25,15,16,5.30
2018,11,25,15,17,5.30
2018,11,25,15,18,5.30
2018,11,25,15,19,5.30
2018,11,25,15,20,5.30
2018,11,25,15,21,5.20
2018,11,25,15,22,5.20
2018,11,25,15,23,5.20
2018,11,25,15,24,5.20
2018,11,25,15,25,5.20
2018,11,25,15,26,5.20
2018,11,25,15,27,5.20
2018,11,25,15,28,5.30
2018,11,25,15,29,5.30
2018,11,25,15,30,5.30
2018,11,25,15,31,5.30
2018,11,25,15,32,5.30
2018,11,25,15,33,5.30
2018,11,25,15,34,5.30
2018,11,25,15,35,5.20
2018,11,25,15,36,5.20
2018,11,25,15,37,5.20
2018,11,25,15,38,5.20
2018,11,25,15,39,5.20
2018,11,25,15,40,5.20
2018,11,25,15,41,5.20
2018,11,25,15,42,5.20
2018,11,25,15,43,5.20
2018,11,25,15,44,5.20
2018,11,25,15,45,5.20
2018,11,25,15,46,5.20
2018,11,25,15,47,5.20
2018,11,25,15,48,5.20
2018,11,25,15,49,5.20
2018,11,25,15,50,5.20
2018,11,25,15,51,5.20
2018,11,25,15,52,5.10
2018,11,25,15,53,5.10
2018,11,25,15,54,5.10
2018,11,25,15,55,5.10
2018,11,25,15,56,5.10
2018,11,25,15,57,5.10
2018,11,25,15,58,5.10
2018,11,25,15,59,5.10
2018,11,25,16,00,5.10
2018,11,25,16,01,5.10
2018,11,25,16,02,5.10
2018,11,25,16,03,5.10
2018,11,25,16,04,5.10
2018,11,25,16,05,5.10
2018,11,25,16,06,5.10
2018,11,25,16,07,5.10
2018,11,25,16,08,5.10
2018,11,25,16,09,5.10
2018,11,25,16,10,5.10
2018,11,25,16,11,5.10
2018,11,25,16,12,5.10
2018,11,25,16,13,5.10
2018,11,25,16,14,5.10
2018,11,25,16,15,5.10
2018,11,25,16,16,5.10
2018,11,25,16,17,5.10
2018,11,25,16,18,5.10
2018,11,25,16,19,5.10
2018,11,25,16,20,5.10
2018,11,25,16,21,5.10
2018,11,25,16,22,5.10
2018,11,25,16,23,5.10
2018,11,25,16,24,5.10
2018,11,25,16,25,5.10
2018,11,25,16,26,5.10
2018,11,25,16,27,5.10
2018,11,25,16,28,5.10
2018,11,25,16,29,5.10
2018,11,25,16,30,5.10
2018,11,25,16,31,5.10
2018,11,25,16,32,5.00
2018,11,25,16,33,5.00
2018,11,25,16,34,5.00
2018,11,25,16,35,5.00
2018,11,25,16,36,5.00
2018,11,25,16,37,5.00
2018,11,25,16,38,5.00
2018,11,25,16,39,5.00
2018,11,25,16,40,5.00
2018,11,25,16,41,5.00
2018,11,25,16,42,5.00
2018,11,25,16,43,5.00
2018,11,25,16,44,5.00
2018,11,25,16,45,5.00
2018,11,25,16,46,5.00
2018,11,25,16,47,4.90
2018,11,25,16,48,4.90
2018,11,25,16,49,4.90
2018,11,25,16,50,4.90
2018,11,25,16,51,4.90
2018,11,25,16,52,4.90
2018,11,25,16,53,4.90
2018,11,25,16,54,4.90
2018,11,25,16,55,4.90
2018,11,25,16,56,4.90
2018,11,25,16,57,4.90
2018,11,25,16,58,4.90
2018,11,25,16,59,4.90
2018,11,25,17,00,4.90
2018,11,25,17,01,4.90
2018,11,25,17,02,4.90
2018,11,25,17,03,4.90
2018,11,25,17,04,4.90
2018,11,25,17,05,4.90
2018,11,25,17,06,4.90
2018,11,25,17,07,4.90
2018,11,25,17,08,4.90
2018,11,25,17,09,4.90
2018,11,25,17,10,4.90
2018,11,25,17,11,4.90
2018,11,25,17,12,4.90
2018,11,25,17,13,4.90
2018,11,25,17,14,4.90
2018,11,25,17,15,4.90
2018,11,25,17,16,4.90
2018,11,25,17,17,4.90
2018,11,25,17,18,4.90
2018,11,25,17,19,4.90
2018,11,25,17,20,4.90
2018,11,25,17,21,4.90
2018,11,25,17,22,4.90
2018,11,25,17,23,4.90
2018,11,25,17,24,4.90
2018,11,25,17,25,4.90
2018,11,25,17,26,4.90
2018,11,25,17,27,4.90
2018,11,25,17,28,4.90
2018,11,25,17,29,4.90
2018,11,25,17,30,4.90
2018,11,25,17,31,4.80
2018,11,25,17,32,4.80
2018,11,25,17,33,4.80
2018,11,25,17,34,4.80
2018,11,25,17,35,4.80
2018,11,25,17,36,4.80
2018,11,25,17,37,4.80
2018,11,25,17,38,4.80
2018,11,25,17,39,4.80
2018,11,25,17,40,4.80
2018,11,25,17,41,4.80
2018,11,25,17,42,4.80
2018,11,25,17,43,4.80
2018,11,25,17,44,4.80
2018,11,25,17,45,4.80
2018,11,25,17,46,4.80
2018,11,25,17,47,4.80
2018,11,25,17,48,4.80
2018,11,25,17,49,4.80
2018,11,25,17,50,4.80
2018,11,25,17,51,4.80
2018,11,25,17,52,4.80
2018,11,25,17,53,4.90
2018,11,25,17,54,4.80
2018,11,25,17,55,4.90
2018,11,25,17,56,4.80
2018,11,25,17,57,4.90
2018,11,25,17,58,4.90
2018,11,25,17,59,4.90
2018,11,25,18,00,4.80
2018,11,25,18,01,4.80
2018,11,25,18,02,4.80
2018,11,25,18,03,4.80
2018,11,25,18,04,4.80
2018,11,25,18,05,4.90
2018,11,25,18,06,4.80
2018,11,25,18,07,4.90
2018,11,25,18,08,4.80
2018,11,25,18,09,4.90
2018,11,25,18,10,4.80
2018,11,25,18,11,4.90
2018,11,25,18,12,4.90
2018,11,25,18,13,4.90
2018,11,25,18,14,4.90
2018,11,25,18,15,4.90
2018,11,25,18,16,4.90
2018,11,25,18,17,4.90
2018,11,25,18,18,4.90
2018,11,25,18,19,4.90
2018,11,25,18,20,4.90
2018,11,25,18,21,4.90
2018,11,25,18,22,4.90
2018,11,25,18,23,4.90
2018,11,25,18,24,4.90
2018,11,25,18,25,4.90
2018,11,25,18,26,4.90
2018,11,25,18,27,4.90
2018,11,25,18,28,4.90
2018,11,25,18,29,4.90
2018,11,25,18,30,4.90
2018,11,25,18,31,4.90
2018,11,25,18,32,4.90
2018,11,25,18,33,4.90
2018,11,25,18,34,4.90
2018,11,25,18,35,4.90
2018,11,25,18,36,4.90
2018,11,25,18,37,4.90
2018,11,25,18,38,4.90
2018,11,25,18,39,4.90
2018,11,25,18,40,4.90
2018,11,25,18,41,4.90
2018,11,25,18,42,4.90
2018,11,25,18,43,5.00
2018,11,25,18,44,5.00
2018,11,25,18,45,5.00
2018,11,25,18,46,5.00
2018,11,25,18,47,5.00
2018,11,25,18,48,5.00
2018,11,25,18,49,5.00
2018,11,25,18,50,5.00
2018,11,25,18,51,5.00
2018,11,25,18,52,5.00
2018,11,25,18,53,5.00
2018,11,25,18,54,5.00
2018,11,25,18,55,5.10
2018,11,25,18,56,5.10
2018,11,25,18,57,5.10
2018,11,25,18,58,5.10
2018,11,25,18,59,5.10
2018,11,25,19,00,5.10
2018,11,25,19,01,5.10
2018,11,25,19,02,5.10
2018,11,25,19,03,5.10
2018,11,25,19,04,5.10
2018,11,25,19,05,5.10
2018,11,25,19,06,5.10
2018,11,25,19,07,5.10
2018,11,25,19,08,5.10
2018,11,25,19,09,5.10
2018,11,25,19,10,5.10
2018,11,25,19,11,5.10
2018,11,25,19,12,5.10
2018,11,25,19,13,5.10
2018,11,25,19,14,5.10
2018,11,25,19,15,5.10
2018,11,25,19,16,5.10
2018,11,25,19,17,5.10
2018,11,25,19,18,5.10
2018,11,25,19,19,5.10
2018,11,25,19,20,5.10
2018,11,25,19,21,5.10
2018,11,25,19,22,5.10
2018,11,25,19,23,5.20
2018,11,25,19,24,5.10
2018,11,25,19,25,5.20
2018,11,25,19,26,5.20
2018,11,25,19,27,5.20
2018,11,25,19,28,5.20
2018,11,25,19,29,5.20
2018,11,25,19,30,5.20
2018,11,25,19,31,5.20
2018,11,25,19,32,5.20
2018,11,25,19,33,5.20
2018,11,25,19,34,5.20
2018,11,25,19,35,5.20
2018,11,25,19,36,5.20
2018,11,25,19,37,5.20
2018,11,25,19,38,5.20
2018,11,25,19,39,5.20
2018,11,25,19,40,5.20
2018,11,25,19,41,5.20
2018,11,25,19,42,5.20
2018,11,25,19,43,5.20
2018,11,25,19,44,5.20
2018,11,25,19,45,5.20
2018,11,25,19,46,5.20
2018,11,25,19,47,5.20
2018,11,25,19,48,5.20
2018,11,25,19,49,5.20
2018,11,25,19,50,5.20
2018,11,25,19,51,5.20
2018,11,25,19,52,5.20
2018,11,25,19,53,5.20
2018,11,25,19,54,5.20
2018,11,25,19,55,5.20
2018,11,25,19,56,5.20
2018,11,25,19,57,5.20
2018,11,25,19,58,5.20
2018,11,25,19,59,5.20
2018,11,25,20,00,5.20
2018,11,25,20,01,5.20
2018,11,25,20,02,5.20
2018,11,25,20,03,5.20
2018,11,25,20,04,5.20
2018,11,25,20,05,5.20
2018,11,25,20,06,5.20
2018,11,25,20,07,5.20
2018,11,25,20,08,5.20
2018,11,25,20,09,5.20
2018,11,25,20,10,5.20
2018,11,25,20,11,5.30
2018,11,25,20,12,5.30
2018,11,25,20,13,5.30
2018,11,25,20,14,5.30
2018,11,25,20,15,5.30
2018,11,25,20,16,5.30
2018,11,25,20,17,5.30
2018,11,25,20,18,5.30
2018,11,25,20,19,5.30
2018,11,25,20,20,5.30
2018,11,25,20,21,5.30
2018,11,25,20,22,5.30
2018,11,25,20,23,5.30
2018,11,25,20,24,5.30
2018,11,25,20,25,5.30
2018,11,25,20,26,5.30
2018,11,25,20,27,5.30
2018,11,25,20,28,5.30
2018,11,25,20,29,5.30
2018,11,25,20,30,5.30
2018,11,25,20,31,5.30
2018,11,25,20,32,5.30
2018,11,25,20,33,5.30
2018,11,25,20,34,5.30
2018,11,25,20,35,5.30
2018,11,25,20,36,5.30
2018,11,25,20,37,5.30
2018,11,25,20,38,5.30
2018,11,25,20,39,5.30
2018,11,25,20,40,5.30
2018,11,25,20,41,5.30
2018,11,25,20,42,5.30
2018,11,25,20,43,5.30
2018,11,25,20,44,5.30
2018,11,25,20,45,5.30
2018,11,25,20,46,5.30
2018,11,25,20,47,5.30
2018,11,25,20,48,5.30
2018,11,25,20,49,5.30
2018,11,25,20,50,5.30
2018,11,25,20,51,5.40
2018,11,25,20,52,5.40
2018,11,25,20,53,5.40
2018,11,25,20,54,5.40
2018,11,25,20,55,5.40
2018,11,25,20,56,5.40
2018,11,25,20,57,5.40
2018,11,25,20,58,5.40
2018,11,25,20,59,5.40
2018,11,25,21,00,5.40
2018,11,25,21,01,5.40
2018,11,25,21,02,5.40
2018,11,25,21,03,5.40
2018,11,25,21,04,5.40
2018,11,25,21,05,5.40
2018,11,25,21,06,5.40
2018,11,25,21,07,5.40
2018,11,25,21,08,5.40
2018,11,25,21,09,5.40
2018,11,25,21,10,5.40
2018,11,25,21,11,5.40
2018,11,25,21,12,5.40
2018,11,25,21,13,5.50
2018,11,25,21,14,5.50
2018,11,25,21,15,5.50
2018,11,25,21,16,5.50
2018,11,25,21,17,5.50
2018,11,25,21,18,5.50
2018,11,25,21,19,5.50
2018,11,25,21,20,5.50
2018,11,25,21,21,5.50
2018,11,25,21,22,5.50
2018,11,25,21,23,5.50
2018,11,25,21,24,5.50
2018,11,25,21,25,5.50
2018,11,25,21,26,5.50
2018,11,25,21,27,5.50
2018,11,25,21,28,5.50
2018,11,25,21,29,5.60
2018,11,25,21,30,5.60
2018,11,25,21,31,5.60
2018,11,25,21,32,5.60
2018,11,25,21,33,5.60
2018,11,25,21,34,5.60
2018,11,25,21,35,5.60
2018,11,25,21,36,5.60
2018,11,25,21,37,5.60
2018,11,25,21,38,5.60
2018,11,25,21,39,5.60
2018,11,25,21,40,5.60
2018,11,25,21,41,5.60
2018,11,25,21,42,5.60
2018,11,25,21,43,5.60
2018,11,25,21,44,5.60
2018,11,25,21,45,5.60
2018,11,25,21,46,5.60
2018,11,25,21,47,5.60
2018,11,25,21,48,5.60
2018,11,25,21,49,5.60
2018,11,25,21,50,5.60
2018,11,25,21,51,5.60
2018,11,25,21,52,5.60
2018,11,25,21,53,5.60
2018,11,25,21,54,5.60
2018,11,25,21,55,5.60
2018,11,25,21,56,5.60
2018,11,25,21,57,5.60
2018,11,25,21,58,5.60
2018,11,25,21,59,5.60
2018,11,25,22,00,5.70
2018,11,25,22,01,5.70
2018,11,25,22,02,5.70
2018,11,25,22,03,5.70
2018,11,25,22,04,5.70
2018,11,25,22,05,5.70
2018,11,25,22,06,5.70
2018,11,25,22,07,5.70
2018,11,25,22,08,5.70
2018,11,25,22,09,5.70
2018,11,25,22,10,5.70
2018,11,25,22,11,5.70
2018,11,25,22,12,5.70
2018,11,25,22,13,5.70
2018,11,25,22,14,5.70
2018,11,25,22,15,5.70
2018,11,25,22,16,5.70
2018,11,25,22,17,5.70
2018,11,25,22,18,5.70
2018,11,25,22,19,5.70
2018,11,25,22,20,5.70
2018,11,25,22,21,5.70
2018,11,25,22,22,5.70
2018,11,25,22,23,5.70
2018,11,25,22,24,5.70
2018,11,25,22,25,5.70
2018,11,25,22,26,5.70
2018,11,25,22,27,5.70
2018,11,25,22,28,5.70
2018,11,25,22,29,5.70
2018,11,25,22,30,5.70
2018,11,25,22,31,5.70
2018,11,25,22,32,5.70
2018,11,25,22,33,5.70
2018,11,25,22,34,5.70
2018,11,25,22,35,5.70
2018,11,25,22,36,5.70
2018,11,25,22,37,5.70
2018,11,25,22,38,5.70
2018,11,25,22,39,5.70
2018,11,25,22,40,5.70
2018,11,25,22,41,5.70
2018,11,25,22,42,5.70
2018,11,25,22,43,5.80
2018,11,25,22,44,5.80
2018,11,25,22,45,5.80
2018,11,25,22,46,5.80
2018,11,25,22,47,5.80
2018,11,25,22,48,5.80
2018,11,25,22,49,5.80
2018,11,25,22,50,5.80
2018,11,25,22,51,5.80
2018,11,25,22,52,5.80
2018,11,25,22,53,5.80
2018,11,25,22,54,5.80
2018,11,25,22,55,5.80
2018,11,25,22,56,5.80
2018,11,25,22,57,5.80
2018,11,25,22,58,5.80
2018,11,25,22,59,5.80
2018,11,25,23,00,5.80
2018,11,25,23,01,5.80
2018,11,25,23,02,5.80
2018,11,25,23,03,5.80
2018,11,25,23,04,5.80
2018,11,25,23,05,5.80
2018,11,25,23,06,5.80
2018,11,25,23,07,5.80
2018,11,25,23,08,5.80
2018,11,25,23,09,5.80
2018,11,25,23,10,5.80
2018,11,25,23,11,5.80
2018,11,25,23,12,5.80
2018,11,25,23,13,5.80
2018,11,25,23,14,5.80
2018,11,25,23,15,5.80
2018,11,25,23,16,5.80
2018,11,25,23,17,5.80
2018,11,25,23,18,5.80
2018,11,25,23,19,5.80
2018,11,25,23,20,5.80
2018,11,25,23,21,5.80
2018,11,25,23,22,5.80
2018,11,25,23,23,5.80
2018,11,25,23,24,5.80
2018,11,25,23,25,5.80
2018,11,25,23,26,5.80
2018,11,25,23,27,5.80
2018,11,25,23,28,5.80
2018,11,25,23,29,5.80
2018,11,25,23,30,5.80
2018,11,25,23,31,5.80
2018,11,25,23,32,5.80
2018,11,25,23,33,5.80
2018,11,25,23,34,5.80
2018,11,25,23,35,5.80
2018,11,25,23,36,5.80
2018,11,25,23,37,5.80
2018,11,25,23,38,5.80
2018,11,25,23,39,5.80
2018,11,25,23,40,5.80
2018,11,25,23,41,5.90
2018,11,25,23,42,5.90
2018,11,25,23,43,5.90
2018,11,25,23,44,5.90
2018,11,25,23,45,5.90
2018,11,25,23,46,5.90
2018,11,25,23,47,5.90
2018,11,25,23,48,5.90
2018,11,25,23,49,5.90
2018,11,25,23,50,5.90
2018,11,25,23,51,5.90
2018,11,25,23,52,5.90
2018,11,25,23,53,5.90
2018,11,25,23,54,5.90
2018,11,25,23,55,5.90
2018,11,25,23,56,5.90
2018,11,25,23,57,5.90
2018,11,25,23,58,5.90
2018,11,25,23,59,5.90
